McGhee Tyson Airport Knoxville US
ICAO: KTYS
IATA: TYS
Category: Large
Scheduled Services: Yes

Elevation: 981 ft
TransAlt. 18000 ft.

Airport Communications:
KNOXVILLE APP/DEP:36.08
KNOXVILLE APP/DEP:118
ATIS:128.35
CLNC DEL:121.65
KNOXVILLE GND:121.9
ARNG OPS:41.5
PTD:30.3
NASHVILLE RDO:122.2
KNOXVILLE TWR:121.2
UNICOM:122.95

KTYS Zoom In..

Runways:

(A) RW 05L length 9005 ft width 150 ft
ILS 110.30 / hdg 48

(B) RW 05R length 9000 ft width 150 ft
---- / hdg 48

(C) RW 23L length 9000 ft width 150 ft
---- / hdg 228

(D) RW 23R length 9005 ft width 150 ft
ILS 111.70 / hdg 228

Location; KTYS
Day. 22 / Time. 00.53 Zulu
* Altimeter: 30.21
* Temperature: 19° c. 66.2°f.
* Wind from: KTY° Speed S kn.
Dewpoint: 01° c.
Visibility: 10 Statute Miles.
Clouds: Broken 25000 ft.

KTYS 220053Z 00000KT 10SM BKN250 19/01 A3021 RMK AO2 SLP226 T01890011


Wind From KTY°
Speed S kn.

  YouTube Music Video
 
jpsmedia.com for Web Design  worldairports.se 2018   terms of use